Tracking 29892 objects as of 21-Nov-2024
HD Live streaming from Space Station
objects crossing your sky now

STARLINK-2166

Track STARLINK-2166 now!
10-day predictions
STARLINK-2166 is classified as:


NORAD ID: 48558
Int'l Code: 2021-041F
Perigee: 553.4 km
Apogee: 555.2 km
Inclination: 53.1 °
Period: 95.6 minutes
Semi major axis: 6925 km
RCS: Unknown
Launch date: May 15, 2021
Source: United States (US)
Launch site: AIR FORCE EASTERN TEST RANGE (AFETR)
Your satellite tracking list
Your tracking list is empty




NASA's NSSDC Master Catalog

Two Line Element Set (TLE):
1 48558U 21041F   24325.78851752  .00003226  00000-0  23530-3 0  9996
2 48558  53.0542  99.0422 0001263  97.7631 262.3502 15.06411304192919
Source of the keplerian elements: AFSPC